Home   Weather   Norman Wells   Past weeks

Flag for Canada Past Weather in Norman Wells, Northwest Territories, Canada — Yesterday and Last 2 Weeks

Now
-18 °F

Light snow. Partly cloudy.


Feels Like: -33 °F
Forecast: -23 / -18 °F
Wind: 6 mph from West

Location: Norman Wells

Current Time: Jan 18, 2017 at 1:22:29 am

Latest Report: Jan 18, 2017 at 12:00 am


Visibility: 30 mi

Pressure: 29.60 "Hg

Humidity: 69%

Dew Point: -26 °F

Location of Norman WellsLocation

Past Weather in Norman Wells — Graph

°F

Norman Wells Temperature Yesterday

Maximum temperature yesterday: -9 °F (at 7:00 am)
Minimum temperature yesterday: -18 °F (at 1:00 am)
Average temperature yesterday: -13 °F

High & Low Weather Summary for the Past Weeks

 TemperatureHumidityPressure
High32 °F (Jan 4, 2:00 am)100% (Jan 4, 8:00 am)30.99 "Hg (Jan 4, 8:00 am)
Low-29 °F (Jan 13, 8:00 am)51% (Jan 10, 5:00 pm)29.18 "Hg (Jan 17, 2:32 am)
Average2 °F76%30.04 "Hg
* Reported Jan 3 12:00 am — Jan 18 12:00 am, Norman Wells, Weather by CustomWeather, © 2017

Note: Actual official high and low records may vary slightly from our data, if they occured in-between our weather recording intervals... More about our weather records

Advertising

Norman Wells Weather History for the Previous 24 Hours

Scroll right to see more
 ConditionsComfort  
Time TempWeatherWind HumidityBarometerVisibility
12:00 am
Wed, Jan 18
-18 °FLight snow. Partly cloudy.6 mph69%29.60 "Hg30 mi
11:00 pm
Tue, Jan 17
-17 °FLight snow. Mostly cloudy.6 mph69%29.59 "Hg30 mi
10:00 pm-15 °FLight snow. Overcast.7 mph63%29.59 "Hg30 mi
9:27 pm-15 °FLight snow. Overcast.9 mph63%29.59 "Hg30 mi
9:00 pm-15 °FPassing clouds.9 mph63%29.59 "Hg30 mi
8:00 pm-15 °FPassing clouds.7 mph63%29.58 "Hg30 mi
7:00 pm-15 °FPassing clouds.7 mph63%29.56 "Hg30 mi
6:00 pm-13 °FPassing clouds.13 mph63%29.54 "Hg30 mi
5:00 pm-13 °FPartly sunny.8 mph63%29.54 "Hg30 mi
4:00 pm-13 °FPartly sunny.8 mph63%29.53 "Hg30 mi
3:00 pm-13 °FBroken clouds.8 mph63%29.50 "Hg30 mi
2:00 pm-11 °FPartly sunny.12 mph63%29.49 "Hg30 mi
1:00 pm-11 °FBroken clouds.14 mph70%29.46 "Hg30 mi
12:00 pm-9 °FPartly cloudy.20 mph70%29.43 "Hg20 mi
11:38 am-9 °FPartly cloudy.17 mph70%29.41 "Hg15 mi
11:00 am-9 °FLight snow. Mostly cloudy.16 mph70%29.41 "Hg1 mi
10:28 am-9 °FLight snow. Overcast.20 mph70%29.38 "Hg3 mi
9:00 am-9 °FLight snow. Mostly cloudy.22 mph70%29.33 "Hg4 mi
8:46 am-9 °FLight snow. Mostly cloudy.16 mph77%29.31 "Hg5 mi
8:00 am-9 °FSnow flurries. Overcast.10 mph70%29.27 "Hg30 mi
7:00 am-9 °FSnow flurries. Overcast.7 mph70%29.22 "Hg30 mi
6:00 am-11 °FSnow flurries. Mostly cloudy.3 mph76%29.19 "Hg30 mi
5:42 am-11 °FSnow flurries. Mostly cloudy.2 mph76%29.19 "Hg30 mi
5:00 am-11 °FLight snow. Mostly cloudy.No wind76%29.18 "Hg15 mi
4:00 am-11 °FLight snow. Mostly cloudy.2 mph76%29.18 "Hg8 mi
3:00 am-13 °FLight snow. Mostly cloudy.No wind76%29.20 "Hg3 mi
2:32 am-13 °FLight snow. Mostly cloudy.3 mph76%29.18 "Hg6 mi
2:00 am-17 °FPartly cloudy.2 mph69%29.20 "Hg30 mi
1:00 am-18 °FSnow flurries. Passing clouds.3 mph69%29.21 "Hg30 mi
Weather by CustomWeather, © 2017

See weather overviewHow to use our weather pages